Voltar ao catálogo

STARLINK-31519

AtivoComunicaçõesVLEO
NORAD 59546·PAYLOAD·🇺🇸 United States

Lançado Apr 18, 2024 de Cape Canaveral Space Force Station

Loading…

Próximas Passagens (próximas 24 horas)

TLE

AtualizadoSource: CelesTrak SupGP

Época: Sep 14, 2026, 21:14 UTC

1 59546C 24074N   26257.88520833  .00000844  00000+0  30582-4 0  2579
2 59546  43.0015 354.6908 0001496 276.4161  78.6230 15.27568014    12

Acompanhe STARLINK-31519 em tempo real com AllMySat

Download on the App Store